Truth Or Consequences, NM

3:13 PM MDT on June 28, 2017 (GMT -0600)
Truth Or Consequences Municipal

Weather History for KTCS - July, 2013

Change the Weather History Date:

Wednesday, July 17, 2013

  Actual Average Record
Temperature  
Mean Temperature 71 °F -  
Max Temperature 81 °F 92 °F 100 °F (2016)
Min Temperature 60 °F 68 °F 60 °F (2013)
Cooling Degree Days 6    
Month to date cooling degree days 245  
Year to date cooling degree days 1025  
Since 1 June cooling degree days 777  
Growing Degree Days 21 (Base 50)    
Moisture  
Dew Point 56 °F    
Average Humidity 65    
Maximum Humidity 93    
Minimum Humidity 37    
Precipitation  
Precipitation 0.17 in - 0.60 in (1998)
Month to date precipitation 1.22  
Year to date precipitation 1.57  
Sea Level Pressure  
Sea Level Pressure 30.05 in    
Wind  
Wind Speed 7 mph (East)    
Max Wind Speed 21 mph    
Max Gust Speed 25 mph    
Visibility 10 miles    
Events Rain    
T = Trace of Precipitation, MM = Missing Value Source: NWS Daily Summary

Daily Weather History Graph

Daily Weather History Graph

Search for Another Location

Airport or City:

Trip Planner

Search our weather history database for the weather conditions in past years. The results will help you decide how hot, cold, wet, or windy it might be!

Date:

Astronomy

Jul. 17, 2013 Rise Set
Actual Time 6:12 AM MDT 8:18 PM MDT
Civil Twilight 5:44 AM MDT 8:46 PM MDT
Nautical Twilight 5:10 AM MDT 9:20 PM MDT
Astronomical Twilight 4:33 AM MDT 9:56 PM MDT
Moon 3:14 PM MDT (7/17) 1:15 AM MDT (7/17)
Length of Visible Light 15h 01m
Length of Day
14h 05m
Waxing Gibbous, 68% of the Moon is Illuminated
Jul 17
Waxing Gibbous
Jul 22
Full
Jul 29
Last Quarter
Aug 6
New
Aug 14
First Quarter

Hourly Weather History & Observations

Time (MDT) Temp. Dew Point Humidity Pressure Visibility Wind Dir Wind Speed Gust Speed Precip Events Conditions
12:53 AM 64.9 °F 57.9 °F 78% 30.06 in 10.0 mi ENE 4.6 mph - 0.03 in   Overcast
1:53 AM 66.9 °F 57.0 °F 70% 30.05 in 10.0 mi NE 4.6 mph - N/A   Overcast
2:53 AM 64.9 °F 57.0 °F 75% 30.05 in 10.0 mi ENE 9.2 mph - N/A   Overcast
3:53 AM 64.0 °F 57.0 °F 78% 30.05 in 10.0 mi North 8.1 mph - N/A   Overcast
4:53 AM 62.1 °F 57.0 °F 84% 30.06 in 10.0 mi North 9.2 mph - 0.00 in Rain Light Rain
5:53 AM 61.0 °F 57.9 °F 90% 30.06 in 10.0 mi North 6.9 mph - 0.03 in   Overcast
6:53 AM 62.1 °F 60.1 °F 93% 30.08 in 10.0 mi NNE 3.5 mph - N/A   Mostly Cloudy
7:53 AM 63.0 °F 59.0 °F 87% 30.10 in 10.0 mi North 3.5 mph - N/A   Partly Cloudy
8:53 AM 66.9 °F 55.9 °F 68% 30.10 in 10.0 mi North 9.2 mph - N/A   Clear
9:53 AM 71.1 °F 55.9 °F 59% 30.08 in 10.0 mi North 10.4 mph - N/A   Partly Cloudy
10:53 AM 73.0 °F 55.0 °F 53% 30.08 in 10.0 mi NE 13.8 mph 18.4 mph N/A   Clear
11:53 AM 75.9 °F 55.0 °F 48% 30.06 in 10.0 mi NNE 9.2 mph - N/A   Clear
12:53 PM 78.1 °F 53.1 °F 42% 30.06 in 10.0 mi ENE 10.4 mph 19.6 mph N/A   Clear
1:53 PM 78.1 °F 51.1 °F 39% 30.03 in 10.0 mi East 9.2 mph 17.3 mph N/A   Overcast
2:53 PM 79.0 °F 50.0 °F 36% 30.02 in 10.0 mi ESE 6.9 mph 16.1 mph N/A   Overcast
3:53 PM 79.0 °F 51.1 °F 38% 30.00 in 10.0 mi SE 8.1 mph - N/A   Partly Cloudy
4:53 PM 70.0 °F 57.9 °F 65% 30.04 in 4.0 mi South 10.4 mph 20.7 mph 0.13 in Rain Rain
5:53 PM 73.9 °F 59.0 °F 59% 30.01 in 10.0 mi South 4.6 mph - 0.01 in   Overcast
6:53 PM 73.9 °F 55.9 °F 53% 30.02 in 10.0 mi South 6.9 mph - N/A   Mostly Cloudy
7:53 PM 73.0 °F 57.0 °F 57% 30.03 in 10.0 mi SSE 5.8 mph - N/A   Clear
8:53 PM 71.1 °F 55.9 °F 59% 30.05 in 10.0 mi SSE 6.9 mph - N/A   Mostly Cloudy
9:53 PM 70.0 °F 55.0 °F 59% 30.06 in 10.0 mi SE 5.8 mph - N/A   Mostly Cloudy
10:53 PM 70.0 °F 54.0 °F 57% 30.07 in 10.0 mi South 5.8 mph - N/A   Overcast
11:53 PM 69.1 °F 54.0 °F 58% 30.07 in 10.0 mi South 3.5 mph - N/A   Overcast